Flag for South Africa Weather past 2 weeks in Bloemfontein, South Africa

Now
43 °F

Quite cool.


Feels Like: 43 °F
Forecast: 35 / 72 °F
Wind: 2 mph from South

Location: Bloemfontein Airport

Current Time: Jul 23, 2014 at 11:01:14 PM

Latest Report: Jul 23, 2014 at 10:00 PM


Visibility: 4 mi

Pressure: 30.24 "Hg

Humidity: 53%

Dew point: 27 °F

Location of BloemfonteinLocation

Historic Weather in Bloemfontein — Graph

°F

Bloemfontein temperature yesterday

Maximum temperature yesterday: 68 °F (at 4:00 PM)
Minimum temperature yesterday: 27 °F (at 3:00 AM)
Average temperature yesterday: 46 °F

Past Weeks' High & Low Weather Summary

 TemperatureHumidityPressure
High70 °F (Jul 23, 3:00 PM)86% (Jul 13, 2:00 AM)30.57 "Hg (Jul 13, 2:00 AM)
Low18 °F (Jul 10, 4:00 AM)8% (Jul 14, 5:00 PM)30.07 "Hg (Jul 17, 4:00 PM)
Average42 °F46%30.34 "Hg
* Reported Jul 8 10:00 PM — Jul 23 10:00 PM, Bloemfontein, Weather by CustomWeather, © 2014

Note: Actual official high and low records may vary slightly from our data, if they occured in-between our weather recording intervals... More about our weather records

Advertising

Bloemfontein weather history for previous 24 hours

 ConditionsComfort  
Time TempWeatherWind HumidityBarometerVisibility
10:00 PM
Jul 23
43 °FQuite cool.2 mph53%30.24 "Hg4 mi
9:00 PM45 °FQuite cool.3 mph46%30.21 "Hg6 mi
8:00 PM45 °FQuite cool.No wind42%30.24 "HgN/A
7:00 PM55 °FPassing clouds.3 mph31%30.21 "HgN/A
6:00 PM63 °FClear.6 mph27%30.21 "Hg10 mi
5:00 PM68 °FClear.9 mph23%30.21 "Hg10 mi
4:00 PM70 °FPassing clouds.9 mph23%30.18 "HgN/A
3:00 PM70 °FPassing clouds.13 mph23%30.21 "HgN/A
2:00 PM68 °FPassing clouds.12 mph26%30.21 "HgN/A
1:00 PM68 °FPassing clouds.13 mph28%30.24 "HgN/A
12:00 PM64 °FPassing clouds.12 mph28%30.27 "HgN/A
11:00 AM61 °FSunny.8 mph27%30.33 "Hg10 mi
10:00 AM54 °FPassing clouds.5 mph38%30.30 "HgN/A
8:00 AM37 °FSunny.No wind60%30.33 "Hg10 mi
7:00 AM30 °FSunny.1 mph69%30.27 "Hg10 mi
6:00 AM30 °FClear.2 mph75%30.27 "Hg10 mi
5:00 AM32 °FClear.1 mph64%30.24 "Hg10 mi
4:00 AM34 °FChilly.2 mph65%30.24 "HgN/A
3:00 AM36 °FChilly.1 mph60%30.24 "HgN/A
2:00 AM37 °FChilly.2 mph56%30.24 "HgN/A
1:00 AM39 °FChilly.6 mph52%30.27 "HgN/A
Weather by CustomWeather, © 2014

See weather overviewHow to use our weather pages